Tanana, AK

10:12 PM AKST on November 18, 2017 (GMT -0900)
Calhoun Memorial

Weather History for PATA - January, 2013

Change the Weather History Date:

Saturday, January 19, 2013

  Actual Average Record
Temperature  
Mean Temperature -6 °F -  
Max Temperature 0 °F -1 °F 32 °F (1963)
Min Temperature -9 °F -16 °F -60 °F (1968)
Degree Days  
Heating Degree Days 70    
Moisture  
Dew Point -17 °F    
Average Humidity 61    
Maximum Humidity 65    
Minimum Humidity 56    
Precipitation  
Precipitation 0.00 in - - ()
Snow  
Snow 0.00 in - - ()
Snow Depth 14.00 in    
Sea Level Pressure  
Sea Level Pressure 30.38 in    
Wind  
Wind Speed 7 mph (East)    
Max Wind Speed 15 mph    
Max Gust Speed 21 mph    
Visibility 10 miles    
Events      
Averages and records for this station are not official NWS values.
T = Trace of Precipitation, MM = Missing Value Source: NWS Daily Summary

Daily Weather History Graph

Daily Weather History Graph

Search for Another Location

Airport or City:

Trip Planner

Search our weather history database for the weather conditions in past years. The results will help you decide how hot, cold, wet, or windy it might be!

Date:

Astronomy

Jan. 19, 2013 Rise Set
Actual Time 10:36 AM AKST 4:03 PM AKST
Civil Twilight 9:27 AM AKST 5:12 PM AKST
Nautical Twilight 8:21 AM AKST 6:18 PM AKST
Astronomical Twilight 7:21 AM AKST 7:17 PM AKST
Moon 11:06 AM AKST 3:42 AM AKST
Length of Visible Light 7h 45m
Length of Day
5h 27m
First Quarter, 58% of the Moon is Illuminated
Jan 19
First Quarter
Jan 26
Full
Feb 3
Last Quarter
Feb 9
New
Feb 17
First Quarter

Hourly Weather History & Observations

Time (AKST) Temp. Windchill Dew Point Humidity Pressure Visibility Wind Dir Wind Speed Gust Speed Precip Events Conditions
12:52 AM -8.0 °F -19.2 °F -17.0 °F 65% 30.48 in 10.0 mi NE 4.6 mph - N/A   Clear
1:52 AM -9.0 °F -18.2 °F -18.0 °F 65% 30.48 in 10.0 mi Variable 3.5 mph - N/A   Clear
2:52 AM -9.0 °F -20.4 °F -18.9 °F 62% 30.47 in 10.0 mi East 4.6 mph - N/A   Clear
3:52 AM -9.9 °F -28.6 °F -18.9 °F 65% 30.46 in 10.0 mi East 10.4 mph - N/A   Clear
4:52 AM -9.9 °F -28.6 °F -18.9 °F 65% 30.45 in 10.0 mi ESE 10.4 mph 17.3 mph N/A   Clear
5:52 AM -9.9 °F -24.9 °F -20.0 °F 61% 30.46 in 10.0 mi East 6.9 mph - N/A   Clear
6:52 AM -9.9 °F -21.5 °F -20.0 °F 61% 30.45 in 10.0 mi Variable 4.6 mph - N/A   Clear
7:52 AM -9.9 °F -21.5 °F -20.0 °F 61% 30.44 in 10.0 mi Variable 4.6 mph 19.6 mph N/A   Clear
8:52 AM -9.0 °F -20.4 °F -18.9 °F 62% 30.44 in 10.0 mi Variable 4.6 mph - N/A   Partly Cloudy
9:52 AM -8.0 °F -16.9 °F -18.0 °F 61% 30.44 in 10.0 mi Variable 3.5 mph - N/A   Overcast
10:52 AM -8.0 °F -21.0 °F -18.9 °F 59% 30.44 in 10.0 mi East 5.8 mph - N/A   Overcast
11:52 AM -8.0 °F -23.9 °F -18.9 °F 59% 30.44 in 10.0 mi East 8.1 mph - N/A   Overcast
12:52 PM -7.1 °F -25.0 °F -18.0 °F 59% 30.43 in 10.0 mi East 10.4 mph - N/A   Overcast
1:52 PM -7.1 °F -21.4 °F -17.0 °F 62% 30.41 in 10.0 mi Variable 6.9 mph 16.1 mph N/A   Overcast
2:52 PM -7.1 °F -22.8 °F -17.0 °F 62% 30.38 in 10.0 mi East 8.1 mph - N/A   Overcast
3:52 PM -7.1 °F -27.6 °F -17.0 °F 62% 30.37 in 10.0 mi ESE 13.8 mph 19.6 mph N/A   Overcast
4:52 PM -7.1 °F -27.6 °F -17.0 °F 62% 30.35 in 10.0 mi East 13.8 mph 20.7 mph N/A   Overcast
5:52 PM -7.1 °F -27.6 °F -17.0 °F 62% 30.32 in 10.0 mi East 13.8 mph - N/A   Overcast
6:52 PM -6.0 °F -20.1 °F -16.1 °F 62% 30.30 in 10.0 mi East 6.9 mph 17.3 mph N/A   Overcast
7:52 PM -4.0 °F -24.5 °F -15.0 °F 59% 30.27 in 10.0 mi East 15.0 mph 20.7 mph N/A   Overcast
8:52 PM -4.0 °F -20.2 °F -15.0 °F 59% 30.25 in 10.0 mi East 9.2 mph - N/A   Mostly Cloudy
9:52 PM -2.9 °F -17.7 °F -15.0 °F 56% 30.23 in 10.0 mi East 8.1 mph - N/A   Clear
10:52 PM -2.0 °F -19.6 °F -14.1 °F 57% 30.19 in 10.0 mi ENE 11.5 mph - N/A   Mostly Cloudy
11:52 PM -0.0 °F -15.3 °F -11.9 °F 57% 30.17 in 10.0 mi East 9.2 mph - N/A   Overcast